Torna al catalogo

STARLINK-35948

AttivoComunicazioniVLEO
NORAD 66633·PAYLOAD·🇺🇸 United States

Lanciato Nov 23, 2025 da Vandenberg Space Force Base

Loading…

Prossimi Passaggi (prossime 24 ore)

TLE

AggiornatoSource: CelesTrak SupGP

Epoca: Sep 14, 2026, 21:29 UTC

1 66633C 25271S   26257.89562500 -.00006687  00000+0 -19759-3 0  2577
2 66633  53.1594 336.2051 0001267  80.2493 288.0257 15.34389299    11

Traccia STARLINK-35948 in tempo reale con AllMySat

Download on the App Store